TimeCST,TemperatureF,Dew PointF,Humidity,Sea Level PressureIn,VisibilityMPH,Wind Direction,Wind SpeedMPH,Gust SpeedMPH,PrecipitationIn,Events,Conditions,WindDirDegrees,DateUTC
12:15 AM,35.6,33.8,93,29.77,5.0,SE,5.8,-,N/A,,Clear,140,2012-12-03 06:15:00
12:36 AM,37.4,33.8,87,29.76,5.0,SE,9.2,17.3,N/A,,Clear,140,2012-12-03 06:36:00
12:56 AM,37.4,33.8,87,29.74,5.0,SE,9.2,-,N/A,,Scattered Clouds,140,2012-12-03 06:56:00
1:16 AM,37.4,33.8,87,29.74,4.0,SE,6.9,-,N/A,,Mostly Cloudy,140,2012-12-03 07:16:00
1:36 AM,37.4,35.6,93,29.72,4.0,SE,5.8,-,N/A,,Overcast,130,2012-12-03 07:36:00
1:56 AM,37.4,35.6,93,29.72,3.0,SE,5.8,-,N/A,,Overcast,140,2012-12-03 07:56:00
2:16 AM,39.2,35.6,87,29.71,3.0,SSE,8.1,-,N/A,,Overcast,150,2012-12-03 08:16:00
2:36 AM,39.2,37.4,93,29.71,3.0,SSE,9.2,-,N/A,,Overcast,150,2012-12-03 08:36:00
2:55 AM,39.2,37.4,93,29.70,3.0,SSE,8.1,16.1,N/A,,Overcast,150,2012-12-03 08:55:00
3:16 AM,41.0,37.4,87,29.69,3.0,SSE,6.9,-,N/A,,Overcast,150,2012-12-03 09:16:00
3:36 AM,41.0,37.4,87,29.68,2.5,SE,6.9,-,N/A,,Overcast,140,2012-12-03 09:36:00
3:56 AM,39.2,37.4,93,29.67,2.5,SSE,5.8,-,N/A,,Overcast,150,2012-12-03 09:56:00
4:16 AM,39.2,37.4,93,29.66,2.5,SE,6.9,-,N/A,,Overcast,140,2012-12-03 10:16:00
4:36 AM,39.2,37.4,93,29.65,2.5,SE,8.1,-,N/A,,Overcast,140,2012-12-03 10:36:00
4:56 AM,41.0,37.4,87,29.64,3.0,SSE,9.2,-,N/A,,Overcast,150,2012-12-03 10:56:00
5:16 AM,41.0,37.4,87,29.63,3.0,SSE,8.1,-,N/A,,Overcast,150,2012-12-03 11:16:00
5:36 AM,41.0,37.4,87,29.62,3.0,SSE,6.9,-,N/A,,Overcast,150,2012-12-03 11:36:00
5:56 AM,41.0,37.4,87,29.61,3.0,SSE,9.2,-,N/A,,Overcast,160,2012-12-03 11:56:00
6:36 AM,42.8,39.2,87,29.60,3.0,SSE,10.4,-,N/A,,Overcast,150,2012-12-03 12:36:00
6:55 AM,42.8,39.2,87,29.59,3.0,SSE,10.4,17.3,N/A,,Overcast,150,2012-12-03 12:55:00
7:16 AM,42.8,39.2,87,29.57,1.8,SE,9.2,-,N/A,,Overcast,140,2012-12-03 13:16:00
7:36 AM,42.8,39.2,87,29.57,1.2,SE,9.2,-,N/A,,Overcast,140,2012-12-03 13:36:00
7:56 AM,42.8,39.2,87,29.57,1.0,SE,6.9,-,N/A,,Overcast,140,2012-12-03 13:56:00
8:16 AM,42.8,39.2,87,29.55,0.8,SSE,10.4,-,N/A,,Overcast,150,2012-12-03 14:16:00
8:36 AM,44.6,41.0,87,29.54,0.8,SSE,9.2,-,N/A,,Overcast,160,2012-12-03 14:36:00
9:16 AM,44.6,41.0,87,29.53,0.2,SSE,8.1,-,N/A,Fog,Fog,160,2012-12-03 15:16:00
9:36 AM,44.6,42.8,93,29.52,0.2,SSE,10.4,-,N/A,Fog,Fog,160,2012-12-03 15:36:00
9:56 AM,44.6,42.8,93,29.52,0.2,South,9.2,-,N/A,Fog,Fog,180,2012-12-03 15:56:00
10:16 AM,46.4,42.8,87,29.52,0.2,South,5.8,-,N/A,Fog,Fog,170,2012-12-03 16:16:00
10:36 AM,46.4,42.8,87,29.52,0.2,South,4.6,-,N/A,Fog,Fog,180,2012-12-03 16:36:00
10:56 AM,46.4,44.6,93,29.51,0.5,South,8.1,-,N/A,,Drizzle,190,2012-12-03 16:56:00
11:16 AM,48.2,44.6,87,29.49,1.2,South,8.1,-,N/A,,Drizzle,190,2012-12-03 17:16:00
11:36 AM,48.2,46.4,93,29.48,1.8,South,6.9,-,N/A,,Overcast,180,2012-12-03 17:36:00
11:57 AM,48.2,46.4,93,29.48,1.8,SSW,9.2,-,N/A,,Overcast,200,2012-12-03 17:57:00
12:16 PM,48.2,46.4,93,29.47,2.0,SSW,12.7,19.6,N/A,,Drizzle,210,2012-12-03 18:16:00
12:36 PM,48.2,46.4,93,29.47,2.5,SSW,9.2,-,N/A,,Drizzle,210,2012-12-03 18:36:00
12:57 PM,48.2,46.4,93,29.47,4.0,SW,10.4,19.6,N/A,,Light Drizzle,230,2012-12-03 18:57:00
1:16 PM,48.2,44.6,87,29.48,5.0,WSW,9.2,16.1,N/A,,Overcast,240,2012-12-03 19:16:00
1:36 PM,48.2,44.6,87,29.48,5.0,WSW,8.1,-,N/A,,Haze,240,2012-12-03 19:36:00
1:56 PM,48.2,44.6,87,29.48,5.0,WSW,8.1,-,N/A,,Overcast,240,2012-12-03 19:56:00
2:16 PM,48.2,42.8,82,29.48,5.0,WSW,8.1,-,N/A,,Haze,250,2012-12-03 20:16:00
2:36 PM,48.2,42.8,82,29.48,5.0,WSW,6.9,-,N/A,,Haze,240,2012-12-03 20:36:00
2:56 PM,48.2,42.8,82,29.50,5.0,WSW,8.1,-,N/A,,Haze,250,2012-12-03 20:56:00
3:16 PM,48.2,41.0,76,29.52,7.0,West,11.5,17.3,N/A,,Overcast,260,2012-12-03 21:16:00
3:36 PM,46.4,39.2,76,29.52,10.0,West,10.4,-,N/A,,Drizzle,270,2012-12-03 21:36:00
3:56 PM,46.4,39.2,76,29.55,10.0,West,15.0,20.7,N/A,,Overcast,270,2012-12-03 21:56:00
4:16 PM,46.4,39.2,76,29.56,10.0,West,9.2,-,N/A,,Overcast,260,2012-12-03 22:16:00
4:36 PM,44.6,37.4,76,29.58,10.0,West,12.7,18.4,N/A,,Scattered Clouds,260,2012-12-03 22:36:00
4:56 PM,44.6,37.4,76,29.60,10.0,WSW,13.8,-,N/A,,Mostly Cloudy,250,2012-12-03 22:56:00
5:16 PM,44.6,35.6,71,29.62,10.0,WSW,12.7,19.6,N/A,,Mostly Cloudy,250,2012-12-03 23:16:00
5:36 PM,42.8,35.6,76,29.62,10.0,WSW,8.1,-,N/A,,Scattered Clouds,250,2012-12-03 23:36:00
5:56 PM,42.8,33.8,70,29.63,10.0,WSW,10.4,-,N/A,,Clear,250,2012-12-03 23:56:00
6:16 PM,41.0,33.8,76,29.64,10.0,SW,11.5,-,N/A,,Clear,230,2012-12-04 00:16:00
6:36 PM,41.0,33.8,76,29.65,10.0,SW,9.2,-,N/A,,Clear,230,2012-12-04 00:36:00
6:56 PM,41.0,33.8,76,29.66,10.0,WSW,12.7,18.4,N/A,,Clear,250,2012-12-04 00:56:00
7:16 PM,41.0,32.0,70,29.67,10.0,WSW,16.1,20.7,N/A,,Clear,250,2012-12-04 01:16:00
7:36 PM,41.0,32.0,70,29.67,10.0,WSW,11.5,18.4,N/A,,Clear,240,2012-12-04 01:36:00
7:56 PM,41.0,30.2,65,29.67,10.0,WSW,13.8,20.7,N/A,,Clear,250,2012-12-04 01:56:00
8:16 PM,41.0,30.2,65,29.67,10.0,WSW,11.5,18.4,N/A,,Clear,240,2012-12-04 02:16:00
8:36 PM,39.2,30.2,70,29.67,10.0,WSW,9.2,-,N/A,,Clear,240,2012-12-04 02:36:00
8:56 PM,41.0,30.2,65,29.67,10.0,SW,13.8,20.7,N/A,,Clear,230,2012-12-04 02:56:00
9:16 PM,41.0,28.4,61,29.68,10.0,WSW,13.8,20.7,N/A,,Clear,240,2012-12-04 03:16:00
9:36 PM,39.2,28.4,65,29.69,10.0,WSW,17.3,20.7,N/A,,Clear,250,2012-12-04 03:36:00
9:56 PM,39.2,26.6,61,29.70,10.0,West,13.8,23.0,N/A,,Clear,260,2012-12-04 03:56:00
10:16 PM,39.2,24.8,56,29.70,10.0,WSW,17.3,27.6,N/A,,Clear,250,2012-12-04 04:16:00
10:36 PM,39.2,24.8,56,29.71,10.0,West,12.7,21.9,N/A,,Clear,260,2012-12-04 04:36:00
10:56 PM,37.4,24.8,60,29.72,10.0,West,13.8,23.0,N/A,,Clear,260,2012-12-04 04:56:00
11:16 PM,35.6,24.8,65,29.74,10.0,West,11.5,17.3,N/A,,Clear,260,2012-12-04 05:16:00
11:36 PM,35.6,21.2,56,29.75,10.0,West,15.0,26.5,N/A,,Clear,260,2012-12-04 05:36:00
11:55 PM,35.6,21.2,56,29.75,10.0,West,13.8,26.5,N/A,,Clear,260,2012-12-04 05:55:00